Date String (YYYY-MM-DD hh:mm:ss) UTC,Instrument flags,absolute air pressure of the measurement (hPa),sample flow rate (lpm),inlet stack bypass flow (lpm),air temperature of the measurement (°C),ambient temperature measured by the external sensor (°C),aerosol sample conditioner tube jacket temperature (°C),OPC LED temperature (°C),internal box temperature (°C),relative humidity of the measurement (%),span deviation,mass concentration of particles derived from Lorenz-Mie calculation of OPC scattering (μg/m³),mass concentration of particles derived from Lorenz-Mie calculation of OPC scattering (μg/m³),mass concentration of particles derived from Lorenz-Mie calculation of OPC scattering (μg/m³)
DateTimeUTC,F1_M11,P_M11,Q1_M11,Q2_M11,T1_M11,T2_M11,T3_M11,T4_M11,T5_M11,U1_M11,ZSPAN_M11,X2_M11,X0_M11,X1_M11
2024-04-29 23:00:00,SystemResetWarning,0823.4,5.00,000.00,025.3,024.5,000.0,033.6,027.2,013.7,0000.0,0003.16,0007.25,0001.61
2024-04-29 23:01:00,SystemResetWarning,0823.4,5.01,000.00,025.4,024.6,000.0,033.6,027.3,014.1,0000.0,0003.13,0007.11,0001.61
2024-04-29 23:02:00,SystemResetWarning,0823.5,5.00,000.00,025.4,024.7,000.0,033.6,027.3,014.2,0000.0,0003.16,0007.30,0001.59
2024-04-29 23:03:00,SystemResetWarning,0823.5,5.00,000.00,025.5,024.8,000.0,033.7,027.3,014.3,0000.0,0003.16,0007.57,0001.58
2024-04-29 23:04:00,SystemResetWarning,0823.5,5.00,000.00,025.5,024.9,000.0,033.7,027.4,014.1,0000.0,0003.14,0007.59,0001.58
2024-04-29 23:05:00,SystemResetWarning,0823.5,5.01,000.00,025.6,025.0,000.0,033.7,027.5,014.1,0000.0,0003.14,0007.92,0001.59
2024-04-29 23:06:00,SystemResetWarning,0823.4,4.99,000.00,025.6,025.0,000.0,033.8,027.5,014.4,0000.0,0003.14,0007.89,0001.59
2024-04-29 23:07:00,SystemResetWarning,0823.4,4.99,000.00,025.7,025.1,000.0,033.8,027.5,014.5,0000.0,0003.20,0008.07,0001.60
2024-04-29 23:08:00,SystemResetWarning,0823.4,4.98,000.00,025.7,025.1,000.0,033.8,027.6,014.4,0000.0,0003.23,0008.06,0001.61
2024-04-29 23:09:00,SystemResetWarning,0823.4,5.00,000.00,025.7,024.7,000.0,033.9,027.3,013.6,0000.0,0003.24,0008.15,0001.61
2024-04-29 23:10:00,SystemResetWarning,0823.4,5.01,000.00,025.4,022.8,000.0,033.9,026.3,014.0,0000.0,0003.21,0008.07,0001.61
2024-04-29 23:11:00,SystemResetWarning,0823.3,5.01,000.00,025.1,022.4,000.0,033.9,025.9,014.3,0000.0,0003.21,0008.03,0001.61
2024-04-29 23:12:00,SystemResetWarning,0823.4,5.01,000.00,025.0,022.6,000.0,033.8,026.0,014.5,0000.0,0003.22,0008.02,0001.63
2024-04-29 23:13:00,SystemResetWarning,0823.4,5.00,000.00,025.0,023.0,000.0,033.7,026.3,014.8,0000.0,0003.23,0008.03,0001.65
2024-04-29 23:14:00,SystemResetWarning,0823.4,4.99,000.00,025.0,023.3,000.0,033.6,026.6,014.1,0000.0,0003.26,0008.15,0001.66
2024-04-29 23:15:00,SystemResetWarning,0823.4,5.00,000.00,025.0,023.5,000.0,033.6,026.7,013.8,0000.0,0003.24,0008.06,0001.66
2024-04-29 23:16:00,SystemResetWarning,0823.4,5.00,000.00,025.1,023.8,000.0,033.6,026.8,013.9,0000.0,0003.24,0008.44,0001.66
2024-04-29 23:17:00,SystemResetWarning,0823.4,5.01,000.00,025.1,024.0,000.0,033.6,026.9,014.1,0000.0,0003.26,0008.13,0001.68
2024-04-29 23:18:00,SystemResetWarning,0823.4,5.00,000.00,025.2,024.2,000.0,033.6,027.0,014.5,0000.0,0003.25,0008.27,0001.69
2024-04-29 23:19:00,SystemResetWarning,0823.5,5.01,000.00,025.2,024.3,000.0,033.6,027.1,013.6,0000.0,0003.19,0008.07,0001.69
2024-04-29 23:20:00,SystemResetWarning,0823.4,4.99,000.00,025.3,024.4,000.0,033.6,027.1,013.7,0000.0,0003.17,0008.00,0001.69
2024-04-29 23:21:00,SystemResetWarning,0823.4,4.99,000.00,025.3,024.5,000.0,033.6,027.2,013.9,0000.0,0003.21,0008.10,0001.70
2024-04-29 23:22:00,SystemResetWarning,0823.4,5.00,000.00,025.3,024.6,000.0,033.6,027.2,013.9,0000.0,0003.22,0008.09,0001.72
2024-04-29 23:23:00,SystemResetWarning,0823.5,4.99,000.00,025.4,024.7,000.0,033.6,027.3,013.6,0000.0,0003.25,0008.20,0001.72
2024-04-29 23:24:00,SystemResetWarning,0823.4,5.00,000.00,025.4,024.8,000.0,033.7,027.3,014.1,0000.0,0003.23,0008.19,0001.71
2024-04-29 23:25:00,SystemResetWarning,0823.4,5.02,000.00,025.5,024.8,000.0,033.7,027.4,014.0,0000.0,0003.21,0007.99,0001.71
2024-04-29 23:26:00,SystemResetWarning,0823.4,5.00,000.00,025.5,024.9,000.0,033.7,027.4,013.9,0000.0,0003.23,0007.94,0001.72
2024-04-29 23:27:00,SystemResetWarning,0823.4,4.98,000.00,025.6,024.9,000.0,033.7,027.4,014.6,0000.0,0003.27,0007.64,0001.71
2024-04-29 23:28:00,SystemResetWarning,0823.3,5.00,000.00,025.6,025.0,000.0,033.8,027.5,014.4,0000.0,0003.25,0007.47,0001.70
2024-04-29 23:29:00,SystemResetWarning,0823.3,5.00,000.00,025.6,025.0,000.0,033.8,027.5,014.0,0000.0,0003.21,0007.24,0001.67
2024-04-29 23:30:00,SystemResetWarning,0823.3,5.00,000.00,025.7,025.1,000.0,033.8,027.6,014.3,0000.0,0003.21,0007.23,0001.66
2024-04-29 23:31:00,SystemResetWarning,0823.3,5.01,000.00,025.7,025.1,000.0,033.9,027.6,014.4,0000.0,0003.23,0007.37,0001.67
2024-04-29 23:32:00,SystemResetWarning,0823.4,5.00,000.00,025.7,025.2,000.0,033.9,027.6,014.5,0000.0,0003.21,0007.35,0001.66
2024-04-29 23:33:00,SystemResetWarning,0823.3,5.00,000.00,025.8,025.2,000.0,033.9,027.6,014.4,0000.0,0003.18,0007.83,0001.65
2024-04-29 23:34:00,SystemResetWarning,0823.3,4.99,000.00,025.8,024.9,000.0,034.0,027.4,014.0,0000.0,0003.18,0008.37,0001.63
2024-04-29 23:35:00,SystemResetWarning,0823.2,5.01,000.00,025.5,022.9,000.0,034.0,026.3,014.5,0000.0,0003.21,0008.42,0001.63
2024-04-29 23:36:00,SystemResetWarning,0823.2,5.02,000.00,025.1,022.4,000.0,034.0,025.9,015.0,0000.0,0003.25,0008.69,0001.62
2024-04-29 23:37:00,SystemResetWarning,0823.1,4.99,000.00,025.0,022.6,000.0,033.9,026.0,014.9,0000.0,0003.27,0009.18,0001.61
2024-04-29 23:38:00,SystemResetWarning,0823.2,4.99,000.00,025.0,022.9,000.0,033.8,026.3,014.7,0000.0,0003.27,0009.27,0001.61
2024-04-29 23:39:00,SystemResetWarning,0823.2,5.00,000.00,025.0,023.3,000.0,033.7,026.6,014.6,0000.0,0003.29,0009.32,0001.61
2024-04-29 23:40:00,SystemResetWarning,0823.2,5.01,000.00,025.1,023.5,000.0,033.7,026.7,015.3,0000.0,0003.32,0009.37,0001.62
2024-04-29 23:41:00,SystemResetWarning,0823.2,5.01,000.00,025.1,023.8,000.0,033.6,026.8,015.5,0000.0,0003.33,0009.31,0001.62
2024-04-29 23:42:00,SystemResetWarning,0823.2,5.00,000.00,025.1,024.0,000.0,033.6,026.9,015.4,0000.0,0003.39,0009.40,0001.63
2024-04-29 23:43:00,SystemResetWarning,0823.3,4.98,000.00,025.2,024.1,000.0,033.6,027.0,015.0,0000.0,0003.42,0009.74,0001.63
2024-04-29 23:44:00,SystemResetWarning,0823.3,5.00,000.00,025.2,024.3,000.0,033.6,027.0,014.9,0000.0,0003.39,0009.51,0001.63
2024-04-29 23:45:00,SystemResetWarning,0823.2,5.01,000.00,025.3,024.4,000.0,033.6,027.1,014.7,0000.0,0003.44,0009.63,0001.64
2024-04-29 23:46:00,SystemResetWarning,0823.2,5.00,000.00,025.3,024.5,000.0,033.6,027.2,014.9,0000.0,0003.39,0009.47,0001.63
2024-04-29 23:47:00,SystemResetWarning,0823.3,4.99,000.00,025.3,024.6,000.0,033.7,027.2,015.0,0000.0,0003.38,0009.49,0001.63
2024-04-29 23:48:00,SystemResetWarning,0823.3,5.00,000.00,025.4,024.7,000.0,033.7,027.3,014.4,0000.0,0003.40,0009.32,0001.66
2024-04-29 23:49:00,SystemResetWarning,0823.3,5.01,000.00,025.4,024.7,000.0,033.7,027.3,014.1,0000.0,0003.38,0009.12,0001.65
2024-04-29 23:50:00,SystemResetWarning,0823.3,5.01,000.00,025.5,024.8,000.0,033.7,027.3,014.7,0000.0,0003.29,0008.92,0001.64
2024-04-29 23:51:00,SystemResetWarning,0823.3,5.00,000.00,025.5,024.8,000.0,033.7,027.4,014.9,0000.0,0003.29,0008.88,0001.64
2024-04-29 23:52:00,SystemResetWarning,0823.3,4.99,000.00,025.5,024.9,000.0,033.8,027.4,015.0,0000.0,0003.29,0008.86,0001.65
2024-04-29 23:53:00,SystemResetWarning,0823.3,4.99,000.00,025.6,024.9,000.0,033.8,027.4,014.9,0000.0,0003.23,0009.14,0001.64
2024-04-29 23:54:00,SystemResetWarning,0823.3,5.00,000.00,025.6,025.0,000.0,033.8,027.5,014.7,0000.0,0003.22,0009.23,0001.63
2024-04-29 23:55:00,SystemResetWarning,0823.3,5.02,000.00,025.6,025.0,000.0,033.9,027.5,014.5,0000.0,0003.21,0009.06,0001.63
2024-04-29 23:56:00,SystemResetWarning,0823.3,5.01,000.00,025.7,025.1,000.0,033.9,027.6,014.3,0000.0,0003.17,0008.12,0001.61
2024-04-29 23:57:00,SystemResetWarning,0823.3,4.99,000.00,025.7,025.1,000.0,033.9,027.6,014.7,0000.0,0003.17,0008.16,0001.60
2024-04-29 23:58:00,SystemResetWarning,0823.3,4.99,000.00,025.7,025.1,000.0,033.9,027.6,015.2,0000.0,0003.20,0008.32,0001.61
2024-04-29 23:59:00,SystemResetWarning,0823.3,4.99,000.00,025.8,025.2,000.0,034.0,027.6,014.9,0000.0,0003.18,0007.87,0001.60
